Terminal Aerodrome Forecast
Issued by NWS Cleveland, OH

Home | Current Version | Previous Version | Text Only | Print | Product List | Glossary On
Versions: 1 2 3 4 5 6 7 8 9 10 11 12 13 14 15 16 17 18 19
000
FTUS41 KCLE 011200 AAA
TAFTOL
TAF AMD
KTOL 011251Z 0113/0212 00000KT 1/4SM FG SCT001
      TEMPO 0113/0114 2SM BR BKN001
     FM011400 03005KT 4SM BR BKN005
     FM011600 05005KT P6SM BKN020
     FM011800 07005KT P6SM BKN035
     FM012200 09003KT P6SM SKC
     FM020400 09003KT 3SM BR SCT003
     FM020800 09003KT 2SM BR BKN003=

USA.gov is the U.S. government's official web portal to all federal, state and local government web resources and services.